Flag for Germany Weather past 2 weeks in Rathenow, Brandenburg, Germany

Now
46 °F

Overcast.


Feels Like: 45 °F
Forecast: 41 / 50 °F
Wind: 3 mph from North

Location: Neuruppin

Current Time: Apr 28, 2015 at 12:36:08 AM

Latest Report: Apr 27, 2015 at 10:00 PM


Visibility: 6 mi

Pressure: 29.75 "Hg

Humidity: 87%

Dew point: 42 °F

Location of RathenowLocation

Historic Weather in Rathenow — Graph

°F

Rathenow temperature yesterday

Maximum temperature yesterday: 51 °F (at 12:00 AM)
Minimum temperature yesterday: 46 °F (at 10:00 PM)
Average temperature yesterday: 49 °F

Past Weeks' High & Low Weather Summary

 TemperatureHumidityPressure
High71 °F (Apr 15, 4:00 PM)99% (Apr 24, 7:00 AM)30.38 "Hg (Apr 24, 7:00 AM)
Low32 °F (Apr 14, 6:00 AM)22% (Apr 21, 1:00 PM)29.60 "Hg (Apr 27, 9:00 AM)
Average50 °F68%30.06 "Hg
* Reported Apr 12 10:00 PM — Apr 27 10:00 PM, Rathenow, Weather by CustomWeather, © 2015

Note: Actual official high and low records may vary slightly from our data, if they occured in-between our weather recording intervals... More about our weather records

Advertising

Rathenow weather history for previous 24 hours

 ConditionsComfort  
Time TempWeatherWind HumidityBarometerVisibility
10:00 PM
Mon, Apr 27
46 °FOvercast.3 mph87%29.75 "Hg6 mi
9:00 PM46 °FOvercast.3 mph86%29.74 "Hg6 mi
8:00 PM47 °FOvercast.5 mph84%29.73 "Hg6 mi
7:00 PM47 °FOvercast.3 mph90%29.72 "Hg6 mi
6:00 PM47 °FLow clouds.5 mph93%29.72 "Hg6 mi
4:00 PM47 °FLow clouds.6 mph92%29.70 "Hg6 mi
3:00 PM48 °FLow clouds.6 mph94%29.69 "Hg6 mi
2:00 PM49 °FLow clouds.5 mph96%29.67 "Hg6 mi
1:00 PM49 °FLow clouds.5 mph97%29.66 "Hg6 mi
12:00 PM48 °FLow clouds.5 mph97%29.65 "Hg5 mi
10:00 AM49 °FLow clouds.3 mph95%29.62 "Hg6 mi
9:00 AM50 °FLow clouds.3 mph97%29.60 "Hg6 mi
8:00 AM50 °FLow clouds.3 mph97%29.64 "Hg2 mi
7:00 AM51 °FLow clouds.5 mph97%29.62 "Hg2 mi
6:00 AM51 °FLow clouds.3 mph97%29.62 "Hg3 mi
4:00 AM51 °FLow clouds.3 mph97%29.65 "Hg5 mi
3:00 AM50 °FClear.3 mph97%29.67 "Hg6 mi
2:00 AM50 °FOvercast.1 mph97%29.67 "Hg2 mi
1:00 AM51 °FOvercast.1 mph96%29.68 "Hg6 mi
12:00 AM51 °FOvercast.No wind95%29.69 "Hg6 mi
Weather by CustomWeather, © 2015

See weather overviewHow to use our weather pages